owner,sensor,date,latitude,longitude,air_pressure(mBar),qcFlag 
CenGOOS,ioos:station:wmo:42067:1,2009-07-01T00:40:00Z,30.0430,-88.6490,1007.7,1111122 
CenGOOS,ioos:station:wmo:42067:1,2009-07-01T01:40:00Z,30.0430,-88.6490,1008.1,1111122 
CenGOOS,ioos:station:wmo:42067:1,2009-07-01T02:40:00Z,30.0430,-88.6490,1008.7,1111122 
CenGOOS,ioos:station:wmo:42067:1,2009-07-01T03:40:00Z,30.0430,-88.6490,1008.9,1111122 
CenGOOS,ioos:station:wmo:42067:1,2009-07-01T04:40:00Z,30.0430,-88.6490,1009.2,1111122 
CenGOOS,ioos:station:wmo:42067:1,2009-07-01T05:40:00Z,30.0430,-88.6490,1009.0,1111122 
CenGOOS,ioos:station:wmo:42067:1,2009-07-01T07:40:00Z,30.0430,-88.6490,1008.6,1111122 
CenGOOS,ioos:station:wmo:42067:1,2009-07-01T13:40:00Z,30.0430,-88.6490,1011.1,1111122 
CenGOOS,ioos:station:wmo:42067:1,2009-07-01T14:40:00Z,30.0430,-88.6490,1011.2,1111122 
CenGOOS,ioos:station:wmo:42067:1,2009-07-01T15:40:00Z,30.0430,-88.6490,1011.4,1111122 
CenGOOS,ioos:station:wmo:42067:1,2009-07-01T16:40:00Z,30.0430,-88.6490,1011.6,1111122 
CenGOOS,ioos:station:wmo:42067:1,2009-07-01T17:40:00Z,30.0430,-88.6490,1011.3,1111122 
CenGOOS,ioos:station:wmo:42067:1,2009-07-01T18:40:00Z,30.0430,-88.6490,1010.9,1111122 
CenGOOS,ioos:station:wmo:42067:1,2009-07-01T19:40:00Z,30.0430,-88.6490,1010.7,1111122 
CenGOOS,ioos:station:wmo:42067:1,2009-07-01T20:40:00Z,30.0430,-88.6490,1010.3,1111122 
CenGOOS,ioos:station:wmo:42067:1,2009-07-01T21:40:00Z,30.0430,-88.6490,1010.3,1111122 
CenGOOS,ioos:station:wmo:42067:1,2009-07-01T23:40:00Z,30.0430,-88.6490,1009.8,1111122 
CenGOOS,ioos:station:wmo:42067:1,2009-07-02T03:40:00Z,30.0430,-88.6490,1011.6,1111122 
CenGOOS,ioos:station:wmo:42067:1,2009-07-02T05:40:00Z,30.0430,-88.6490,1012.1,1111122 
CenGOOS,ioos:station:wmo:42067:1,2009-07-02T09:40:00Z,30.0430,-88.6490,1012.4,1111122 
CenGOOS,ioos:station:wmo:42067:1,2009-07-02T10:40:00Z,30.0430,-88.6490,1013.0,1111122 
CenGOOS,ioos:station:wmo:42067:1,2009-07-02T11:40:00Z,30.0430,-88.6490,1013.6,1111122 
CenGOOS,ioos:station:wmo:42067:1,2009-07-02T13:40:00Z,30.0430,-88.6490,1014.8,1111122 
CenGOOS,ioos:station:wmo:42067:1,2009-07-02T17:40:00Z,30.0430,-88.6490,1015.3,1111122 
CenGOOS,ioos:station:wmo:42067:1,2009-07-02T19:40:00Z,30.0430,-88.6490,1014.3,1111122 
CenGOOS,ioos:station:wmo:42067:1,2009-07-02T21:40:00Z,30.0430,-88.6490,1013.4,1111122 
CenGOOS,ioos:station:wmo:42067:1,2009-07-02T23:40:00Z,30.0430,-88.6490,1013.4,1111122 
CenGOOS,ioos:station:wmo:42067:1,2009-07-03T01:40:00Z,30.0430,-88.6490,1014.5,1111122 
CenGOOS,ioos:station:wmo:42067:1,2009-07-03T06:40:00Z,30.0430,-88.6490,1015.6,1111122 
CenGOOS,ioos:station:wmo:42067:1,2009-07-03T07:40:00Z,30.0430,-88.6490,1015.6,1111122 
CenGOOS,ioos:station:wmo:42067:1,2009-07-03T08:40:00Z,30.0430,-88.6490,1015.7,1111122 
CenGOOS,ioos:station:wmo:42067:1,2009-07-03T09:40:00Z,30.0430,-88.6490,1016.2,1111122 
CenGOOS,ioos:station:wmo:42067:1,2009-07-03T10:40:00Z,30.0430,-88.6490,1017.0,1111122 
CenGOOS,ioos:station:wmo:42067:1,2009-07-03T12:40:00Z,30.0430,-88.6490,1017.7,1111122 
CenGOOS,ioos:station:wmo:42067:1,2009-07-03T13:40:00Z,30.0430,-88.6490,1018.3,1111122 
CenGOOS,ioos:station:wmo:42067:1,2009-07-03T14:40:00Z,30.0430,-88.6490,1018.7,1111122 
CenGOOS,ioos:station:wmo:42067:1,2009-07-03T15:40:00Z,30.0430,-88.6490,1018.8,1111122 
CenGOOS,ioos:station:wmo:42067:1,2009-07-03T16:40:00Z,30.0430,-88.6490,1018.9,1111122 
CenGOOS,ioos:station:wmo:42067:1,2009-07-03T17:40:00Z,30.0430,-88.6490,1018.8,1111122 
CenGOOS,ioos:station:wmo:42067:1,2009-07-03T21:40:00Z,30.0430,-88.6490,1016.6,1111122 
CenGOOS,ioos:station:wmo:42067:1,2009-07-03T23:40:00Z,30.0430,-88.6490,1016.3,1111122 
CenGOOS,ioos:station:wmo:42067:1,2009-07-04T00:40:00Z,30.0430,-88.6490,1016.5,1111122 
CenGOOS,ioos:station:wmo:42067:1,2009-07-04T02:40:00Z,30.0430,-88.6490,1017.0,1111122 
CenGOOS,ioos:station:wmo:42067:1,2009-07-04T03:40:00Z,30.0430,-88.6490,1017.1,1111122 
CenGOOS,ioos:station:wmo:42067:1,2009-07-04T04:40:00Z,30.0430,-88.6490,1017.2,1111122 
CenGOOS,ioos:station:wmo:42067:1,2009-07-04T09:40:00Z,30.0430,-88.6490,1016.6,1111122 
CenGOOS,ioos:station:wmo:42067:1,2009-07-04T11:40:00Z,30.0430,-88.6490,1017.0,1111122 
CenGOOS,ioos:station:wmo:42067:1,2009-07-04T13:40:00Z,30.0430,-88.6490,1017.8,1111122 
CenGOOS,ioos:station:wmo:42067:1,2009-07-04T15:40:00Z,30.0430,-88.6490,1017.8,1111122 
CenGOOS,ioos:station:wmo:42067:1,2009-07-04T17:40:00Z,30.0430,-88.6490,1017.3,1111122 
CenGOOS,ioos:station:wmo:42067:1,2009-07-04T19:40:00Z,30.0430,-88.6490,1016.2,1111122 
CenGOOS,ioos:station:wmo:42067:1,2009-07-04T23:40:00Z,30.0430,-88.6490,1015.3,1111122 
CenGOOS,ioos:station:wmo:42067:1,2009-07-05T00:40:00Z,30.0430,-88.6490,1014.7,1111122 
CenGOOS,ioos:station:wmo:42067:1,2009-07-05T01:40:00Z,30.0430,-88.6490,1014.1,1111122 
CenGOOS,ioos:station:wmo:42067:1,2009-07-05T02:40:00Z,30.0430,-88.6490,1014.2,1111122 
CenGOOS,ioos:station:wmo:42067:1,2009-07-05T04:40:00Z,30.0430,-88.6490,1014.3,1111122 
CenGOOS,ioos:station:wmo:42067:1,2009-07-05T06:40:00Z,30.0430,-88.6490,1014.4,1111122 
CenGOOS,ioos:station:wmo:42067:1,2009-07-05T12:40:00Z,30.0430,-88.6490,1014.6,1111122 
CenGOOS,ioos:station:wmo:42067:1,2009-07-05T13:40:00Z,30.0430,-88.6490,1014.6,1111122 
CenGOOS,ioos:station:wmo:42067:1,2009-07-05T14:40:00Z,30.0430,-88.6490,1014.9,1111122 
CenGOOS,ioos:station:wmo:42067:1,2009-07-05T15:40:00Z,30.0430,-88.6490,1014.8,1111122 
CenGOOS,ioos:station:wmo:42067:1,2009-07-05T16:40:00Z,30.0430,-88.6490,1014.9,1111122 
CenGOOS,ioos:station:wmo:42067:1,2009-07-05T18:40:00Z,30.0430,-88.6490,1014.4,1111122 
CenGOOS,ioos:station:wmo:42067:1,2009-07-05T19:40:00Z,30.0430,-88.6490,1013.5,1111122 
CenGOOS,ioos:station:wmo:42067:1,2009-07-05T20:40:00Z,30.0430,-88.6490,1013.0,1111122 
CenGOOS,ioos:station:wmo:42067:1,2009-07-05T22:40:00Z,30.0430,-88.6490,1012.2,1111122 
CenGOOS,ioos:station:wmo:42067:1,2009-07-06T02:40:00Z,30.0430,-88.6490,1012.5,1111122 
CenGOOS,ioos:station:wmo:42067:1,2009-07-06T04:40:00Z,30.0430,-88.6490,1012.4,1111122 
CenGOOS,ioos:station:wmo:42067:1,2009-07-06T06:40:00Z,30.0430,-88.6490,1012.3,1111122 
CenGOOS,ioos:station:wmo:42067:1,2009-07-06T08:40:00Z,30.0430,-88.6490,1011.5,1111122 
CenGOOS,ioos:station:wmo:42067:1,2009-07-06T10:40:00Z,30.0430,-88.6490,1011.7,1111122 
CenGOOS,ioos:station:wmo:42067:1,2009-07-06T14:40:00Z,30.0430,-88.6490,1012.8,1111122 
CenGOOS,ioos:station:wmo:42067:1,2009-07-06T16:40:00Z,30.0430,-88.6490,1013.1,1111122 
CenGOOS,ioos:station:wmo:42067:1,2009-07-06T18:40:00Z,30.0430,-88.6490,1014.2,1111122 
CenGOOS,ioos:station:wmo:42067:1,2009-07-06T22:40:00Z,30.0430,-88.6490,1011.5,1111122 
CenGOOS,ioos:station:wmo:42067:1,2009-07-07T00:40:00Z,30.0430,-88.6490,1011.0,1111122 
CenGOOS,ioos:station:wmo:42067:1,2009-07-07T02:40:00Z,30.0430,-88.6490,1011.1,1111122 
CenGOOS,ioos:station:wmo:42067:1,2009-07-07T05:40:00Z,30.0430,-88.6490,1011.8,1111122 
CenGOOS,ioos:station:wmo:42067:1,2009-07-07T06:40:00Z,30.0430,-88.6490,1011.4,1111122 
CenGOOS,ioos:station:wmo:42067:1,2009-07-07T07:40:00Z,30.0430,-88.6490,1010.1,1111122 
CenGOOS,ioos:station:wmo:42067:1,2009-07-07T08:40:00Z,30.0430,-88.6490,1010.6,1111122 
CenGOOS,ioos:station:wmo:42067:1,2009-07-07T09:40:00Z,30.0430,-88.6490,1010.5,1111122 
CenGOOS,ioos:station:wmo:42067:1,2009-07-07T10:40:00Z,30.0430,-88.6490,1010.5,1111122 
CenGOOS,ioos:station:wmo:42067:1,2009-07-07T11:40:00Z,30.0430,-88.6490,1010.8,1111122 
CenGOOS,ioos:station:wmo:42067:1,2009-07-07T12:40:00Z,30.0430,-88.6490,1011.0,1111122 
CenGOOS,ioos:station:wmo:42067:1,2009-07-07T13:40:00Z,30.0430,-88.6490,1011.8,1111122 
CenGOOS,ioos:station:wmo:42067:1,2009-07-07T14:40:00Z,30.0430,-88.6490,1012.6,1111122 
CenGOOS,ioos:station:wmo:42067:1,2009-07-07T15:40:00Z,30.0430,-88.6490,1012.9,1111122 
CenGOOS,ioos:station:wmo:42067:1,2009-07-07T17:40:00Z,30.0430,-88.6490,1012.1,1111122 
CenGOOS,ioos:station:wmo:42067:1,2009-07-07T19:40:00Z,30.0430,-88.6490,1011.3,1111122 
CenGOOS,ioos:station:wmo:42067:1,2009-07-12T15:40:00Z,30.0430,-88.6490,1021.7,1111122 
CenGOOS,ioos:station:wmo:42067:1,2009-07-12T17:40:00Z,30.0430,-88.6490,1021.6,1111122 
CenGOOS,ioos:station:wmo:42067:1,2009-07-12T20:40:00Z,30.0430,-88.6490,1019.4,1111122 
CenGOOS,ioos:station:wmo:42067:1,2009-07-12T22:40:00Z,30.0430,-88.6490,1018.7,1111122 
CenGOOS,ioos:station:wmo:42067:1,2009-07-12T23:40:00Z,30.0430,-88.6490,1019.5,1111122 
CenGOOS,ioos:station:wmo:42067:1,2009-07-13T00:40:00Z,30.0430,-88.6490,1019.4,1111122 
CenGOOS,ioos:station:wmo:42067:1,2009-07-13T02:40:00Z,30.0430,-88.6490,1018.4,1111122 
CenGOOS,ioos:station:wmo:42067:1,2009-07-13T04:40:00Z,30.0430,-88.6490,1018.7,1111122 
CenGOOS,ioos:station:wmo:42067:1,2009-07-13T06:40:00Z,30.0430,-88.6490,1017.6,1111122 
CenGOOS,ioos:station:wmo:42067:1,2009-07-13T09:40:00Z,30.0430,-88.6490,1016.2,1111122 
CenGOOS,ioos:station:wmo:42067:1,2009-07-13T10:40:00Z,30.0430,-88.6490,1016.6,1111122 
CenGOOS,ioos:station:wmo:42067:1,2009-07-13T11:40:00Z,30.0430,-88.6490,1016.9,1111122 
CenGOOS,ioos:station:wmo:42067:1,2009-07-13T12:40:00Z,30.0430,-88.6490,1017.1,1111122 
CenGOOS,ioos:station:wmo:42067:1,2009-07-13T14:40:00Z,30.0430,-88.6490,1017.9,1111122 
CenGOOS,ioos:station:wmo:42067:1,2009-07-13T16:40:00Z,30.0430,-88.6490,1017.6,1111122 
CenGOOS,ioos:station:wmo:42067:1,2009-07-13T18:40:00Z,30.0430,-88.6490,1016.0,1111122 
CenGOOS,ioos:station:wmo:42067:1,2009-07-13T20:40:00Z,30.0430,-88.6490,1015.3,1111122 
CenGOOS,ioos:station:wmo:42067:1,2009-07-14T00:40:00Z,30.0430,-88.6490,1014.1,1111122 
CenGOOS,ioos:station:wmo:42067:1,2009-07-14T02:40:00Z,30.0430,-88.6490,1015.7,1111122 
CenGOOS,ioos:station:wmo:42067:1,2009-07-14T04:40:00Z,30.0430,-88.6490,1016.3,1111122 
CenGOOS,ioos:station:wmo:42067:1,2009-07-14T05:40:00Z,30.0430,-88.6490,1015.8,1111122 
CenGOOS,ioos:station:wmo:42067:1,2009-07-14T06:40:00Z,30.0430,-88.6490,1015.1,1111122 
CenGOOS,ioos:station:wmo:42067:1,2009-07-14T07:40:00Z,30.0430,-88.6490,1014.8,1111122 
CenGOOS,ioos:station:wmo:42067:1,2009-07-14T08:40:00Z,30.0430,-88.6490,1014.8,1111122 
CenGOOS,ioos:station:wmo:42067:1,2009-07-14T12:40:00Z,30.0430,-88.6490,1016.7,1111122 
CenGOOS,ioos:station:wmo:42067:1,2009-07-14T13:40:00Z,30.0430,-88.6490,1017.1,1111122 
CenGOOS,ioos:station:wmo:42067:1,2009-07-14T14:40:00Z,30.0430,-88.6490,1017.5,1111122 
CenGOOS,ioos:station:wmo:42067:1,2009-07-14T16:40:00Z,30.0430,-88.6490,1017.4,1111122 
CenGOOS,ioos:station:wmo:42067:1,2009-07-14T18:40:00Z,30.0430,-88.6490,1016.4,1111122 
CenGOOS,ioos:station:wmo:42067:1,2009-07-14T20:40:00Z,30.0430,-88.6490,1016.4,1111122 
CenGOOS,ioos:station:wmo:42067:1,2009-07-14T22:40:00Z,30.0430,-88.6490,1015.6,1111122 
CenGOOS,ioos:station:wmo:42067:1,2009-07-15T00:40:00Z,30.0430,-88.6490,1016.0,1111122 
CenGOOS,ioos:station:wmo:42067:1,2009-07-15T03:40:00Z,30.0430,-88.6490,1017.1,1111122 
CenGOOS,ioos:station:wmo:42067:1,2009-07-15T04:40:00Z,30.0430,-88.6490,1017.3,1111122 
CenGOOS,ioos:station:wmo:42067:1,2009-07-15T05:40:00Z,30.0430,-88.6490,1017.2,1111122 
CenGOOS,ioos:station:wmo:42067:1,2009-07-15T06:40:00Z,30.0430,-88.6490,1017.0,1111122 
CenGOOS,ioos:station:wmo:42067:1,2009-07-15T07:40:00Z,30.0430,-88.6490,1016.6,1111122 
CenGOOS,ioos:station:wmo:42067:1,2009-07-15T09:40:00Z,30.0430,-88.6490,1017.5,1111122 
CenGOOS,ioos:station:wmo:42067:1,2009-07-15T11:40:00Z,30.0430,-88.6490,1018.4,1111122 
CenGOOS,ioos:station:wmo:42067:1,2009-07-15T15:40:00Z,30.0430,-88.6490,1019.9,1111122 
CenGOOS,ioos:station:wmo:42067:1,2009-07-15T16:40:00Z,30.0430,-88.6490,1020.0,1111122 
CenGOOS,ioos:station:wmo:42067:1,2009-07-15T17:40:00Z,30.0430,-88.6490,1019.8,1111122 
CenGOOS,ioos:station:wmo:42067:1,2009-07-15T19:40:00Z,30.0430,-88.6490,1019.0,1111122 
CenGOOS,ioos:station:wmo:42067:1,2009-07-15T21:40:00Z,30.0430,-88.6490,1017.9,1111122 
CenGOOS,ioos:station:wmo:42067:1,2009-07-15T23:40:00Z,30.0430,-88.6490,1018.1,1111122 
CenGOOS,ioos:station:wmo:42067:1,2009-07-16T01:40:00Z,30.0430,-88.6490,1018.4,1111122 
CenGOOS,ioos:station:wmo:42067:1,2009-07-16T06:40:00Z,30.0430,-88.6490,1018.2,1111122 
CenGOOS,ioos:station:wmo:42067:1,2009-07-16T08:40:00Z,30.0430,-88.6490,1017.3,1111122 
CenGOOS,ioos:station:wmo:42067:1,2009-07-16T10:40:00Z,30.0430,-88.6490,1017.8,1111122 
CenGOOS,ioos:station:wmo:42067:1,2009-07-16T11:40:00Z,30.0430,-88.6490,1018.4,1111122 
CenGOOS,ioos:station:wmo:42067:1,2009-07-16T12:40:00Z,30.0430,-88.6490,1019.0,1111122 
CenGOOS,ioos:station:wmo:42067:1,2009-07-16T13:40:00Z,30.0430,-88.6490,1019.1,1111122 
CenGOOS,ioos:station:wmo:42067:1,2009-07-17T21:40:00Z,30.0430,-88.6490,1015.3,1111122 
CenGOOS,ioos:station:wmo:42067:1,2009-07-17T23:40:00Z,30.0430,-88.6490,1015.5,1111122 
CenGOOS,ioos:station:wmo:42067:1,2009-07-18T01:40:00Z,30.0430,-88.6490,1016.0,1111122 
CenGOOS,ioos:station:wmo:42067:1,2009-07-18T03:40:00Z,30.0430,-88.6490,1016.2,1111122 
CenGOOS,ioos:station:wmo:42067:1,2009-07-18T04:40:00Z,30.0430,-88.6490,1016.7,1111122 
CenGOOS,ioos:station:wmo:42067:1,2009-07-18T05:40:00Z,30.0430,-88.6490,1016.8,1111122 
CenGOOS,ioos:station:wmo:42067:1,2009-07-18T06:40:00Z,30.0430,-88.6490,1016.8,1111122 
CenGOOS,ioos:station:wmo:42067:1,2009-07-18T07:40:00Z,30.0430,-88.6490,1016.4,1111122 
CenGOOS,ioos:station:wmo:42067:1,2009-07-18T11:40:00Z,30.0430,-88.6490,1017.2,1111122 
CenGOOS,ioos:station:wmo:42067:1,2009-07-18T12:40:00Z,30.0430,-88.6490,1017.9,1111122 
CenGOOS,ioos:station:wmo:42067:1,2009-07-18T13:40:00Z,30.0430,-88.6490,1018.3,1111122 
CenGOOS,ioos:station:wmo:42067:1,2009-07-18T15:40:00Z,30.0430,-88.6490,1018.7,1111122 
CenGOOS,ioos:station:wmo:42067:1,2009-07-18T17:40:00Z,30.0430,-88.6490,1018.7,1111122 
CenGOOS,ioos:station:wmo:42067:1,2009-07-18T19:40:00Z,30.0430,-88.6490,1018.4,1111122 
CenGOOS,ioos:station:wmo:42067:1,2009-07-18T21:40:00Z,30.0430,-88.6490,1017.9,1111122 
CenGOOS,ioos:station:wmo:42067:1,2009-07-18T23:40:00Z,30.0430,-88.6490,1017.8,1111122 
CenGOOS,ioos:station:wmo:42067:1,2009-07-19T00:40:00Z,30.0430,-88.6490,1017.9,1111122 
CenGOOS,ioos:station:wmo:42067:1,2009-07-19T03:40:00Z,30.0430,-88.6490,1018.7,1111122 
CenGOOS,ioos:station:wmo:42067:1,2009-07-19T04:40:00Z,30.0430,-88.6490,1018.4,1111122 
CenGOOS,ioos:station:wmo:42067:1,2009-07-19T05:40:00Z,30.0430,-88.6490,1018.3,1111122 
CenGOOS,ioos:station:wmo:42067:1,2009-07-19T06:40:00Z,30.0430,-88.6490,1017.8,1111122 
CenGOOS,ioos:station:wmo:42067:1,2009-07-19T08:40:00Z,30.0430,-88.6490,1017.8,1111122 
CenGOOS,ioos:station:wmo:42067:1,2009-07-19T10:40:00Z,30.0430,-88.6490,1018.3,1111122 
CenGOOS,ioos:station:wmo:42067:1,2009-07-19T14:40:00Z,30.0430,-88.6490,1020.0,1111122 
CenGOOS,ioos:station:wmo:42067:1,2009-07-19T15:40:00Z,30.0430,-88.6490,1020.4,1111122 
CenGOOS,ioos:station:wmo:42067:1,2009-07-19T16:40:00Z,30.0430,-88.6490,1020.3,1111122 
CenGOOS,ioos:station:wmo:42067:1,2009-07-19T18:40:00Z,30.0430,-88.6490,1019.4,1111122 
CenGOOS,ioos:station:wmo:42067:1,2009-07-19T20:40:00Z,30.0430,-88.6490,1018.5,1111122 
CenGOOS,ioos:station:wmo:42067:1,2009-07-19T22:40:00Z,30.0430,-88.6490,1018.1,1111122 
CenGOOS,ioos:station:wmo:42067:1,2009-07-20T00:40:00Z,30.0430,-88.6490,1018.3,1111122 
CenGOOS,ioos:station:wmo:42067:1,2009-07-20T05:40:00Z,30.0430,-88.6490,1018.5,1111122 
CenGOOS,ioos:station:wmo:42067:1,2009-07-20T07:40:00Z,30.0430,-88.6490,1017.1,1111122 
CenGOOS,ioos:station:wmo:42067:1,2009-07-20T09:40:00Z,30.0430,-88.6490,1017.2,1111122 
CenGOOS,ioos:station:wmo:42067:1,2009-07-20T10:40:00Z,30.0430,-88.6490,1017.7,1111122 
CenGOOS,ioos:station:wmo:42067:1,2009-07-20T11:40:00Z,30.0430,-88.6490,1018.0,1111122 
CenGOOS,ioos:station:wmo:42067:1,2009-07-20T12:40:00Z,30.0430,-88.6490,1018.5,1111122 
CenGOOS,ioos:station:wmo:42067:1,2009-07-20T13:40:00Z,30.0430,-88.6490,1018.8,1111122 
CenGOOS,ioos:station:wmo:42067:1,2009-07-20T16:40:00Z,30.0430,-88.6490,1019.3,1111122 
CenGOOS,ioos:station:wmo:42067:1,2009-07-20T18:40:00Z,30.0430,-88.6490,1018.5,1111122 
CenGOOS,ioos:station:wmo:42067:1,2009-07-20T20:40:00Z,30.0430,-88.6490,1017.1,1111122 
CenGOOS,ioos:station:wmo:42067:1,2009-07-20T22:40:00Z,30.0430,-88.6490,1017.2,1111122 
CenGOOS,ioos:station:wmo:42067:1,2009-07-21T00:40:00Z,30.0430,-88.6490,1016.8,1111122 
CenGOOS,ioos:station:wmo:42067:1,2009-07-21T02:40:00Z,30.0430,-88.6490,1016.9,1111122 
CenGOOS,ioos:station:wmo:42067:1,2009-07-21T07:40:00Z,30.0430,-88.6490,1016.4,1111122 
CenGOOS,ioos:station:wmo:42067:1,2009-07-21T08:40:00Z,30.0430,-88.6490,1016.2,1111122 
CenGOOS,ioos:station:wmo:42067:1,2009-07-21T09:40:00Z,30.0430,-88.6490,1016.3,1111122 
CenGOOS,ioos:station:wmo:42067:1,2009-07-21T10:40:00Z,30.0430,-88.6490,1016.6,1111122 
CenGOOS,ioos:station:wmo:42067:1,2009-07-21T12:40:00Z,30.0430,-88.6490,1017.3,1111122 
CenGOOS,ioos:station:wmo:42067:1,2009-07-21T14:40:00Z,30.0430,-88.6490,1017.3,1111122 
CenGOOS,ioos:station:wmo:42067:1,2009-07-21T16:40:00Z,30.0430,-88.6490,1017.5,1111122 
CenGOOS,ioos:station:wmo:42067:1,2009-07-21T19:40:00Z,30.0430,-88.6490,1016.2,1111122 
CenGOOS,ioos:station:wmo:42067:1,2009-07-21T20:40:00Z,30.0430,-88.6490,1015.9,1111122 
CenGOOS,ioos:station:wmo:42067:1,2009-07-21T21:40:00Z,30.0430,-88.6490,1015.8,1111122 
CenGOOS,ioos:station:wmo:42067:1,2009-07-21T22:40:00Z,30.0430,-88.6490,1015.8,1111122 
CenGOOS,ioos:station:wmo:42067:1,2009-07-22T02:40:00Z,30.0430,-88.6490,1015.6,1111122 
CenGOOS,ioos:station:wmo:42067:1,2009-07-22T03:40:00Z,30.0430,-88.6490,1015.5,1111122 
CenGOOS,ioos:station:wmo:42067:1,2009-07-22T04:40:00Z,30.0430,-88.6490,1015.5,1111122 
CenGOOS,ioos:station:wmo:42067:1,2009-07-22T05:40:00Z,30.0430,-88.6490,1015.4,1111122 
CenGOOS,ioos:station:wmo:42067:1,2009-07-22T06:40:00Z,30.0430,-88.6490,1014.8,1111122 
CenGOOS,ioos:station:wmo:42067:1,2009-07-22T07:40:00Z,30.0430,-88.6490,1014.4,1111122 
CenGOOS,ioos:station:wmo:42067:1,2009-07-22T10:40:00Z,30.0430,-88.6490,1014.9,1111122 
CenGOOS,ioos:station:wmo:42067:1,2009-07-22T12:40:00Z,30.0430,-88.6490,1015.5,1111122 
CenGOOS,ioos:station:wmo:42067:1,2009-07-22T14:40:00Z,30.0430,-88.6490,1016.4,1111122 
CenGOOS,ioos:station:wmo:42067:1,2009-07-22T15:40:00Z,30.0430,-88.6490,1016.7,1111122 
CenGOOS,ioos:station:wmo:42067:1,2009-07-22T16:40:00Z,30.0430,-88.6490,1016.7,1111122 
CenGOOS,ioos:station:wmo:42067:1,2009-07-22T17:40:00Z,30.0430,-88.6490,1016.8,1111122 
CenGOOS,ioos:station:wmo:42067:1,2009-07-22T18:40:00Z,30.0430,-88.6490,1016.1,1111122 
CenGOOS,ioos:station:wmo:42067:1,2009-07-22T22:40:00Z,30.0430,-88.6490,1014.7,1111122 
CenGOOS,ioos:station:wmo:42067:1,2009-07-22T23:40:00Z,30.0430,-88.6490,1014.2,1111122 
CenGOOS,ioos:station:wmo:42067:1,2009-07-23T01:40:00Z,30.0430,-88.6490,1014.7,1111122 
CenGOOS,ioos:station:wmo:42067:1,2009-07-23T03:40:00Z,30.0430,-88.6490,1015.2,1111122 
CenGOOS,ioos:station:wmo:42067:1,2009-07-23T05:40:00Z,30.0430,-88.6490,1015.1,1111122 
CenGOOS,ioos:station:wmo:42067:1,2009-07-23T07:40:00Z,30.0430,-88.6490,1014.4,1111122 
CenGOOS,ioos:station:wmo:42067:1,2009-07-23T09:40:00Z,30.0430,-88.6490,1014.3,1111122 
CenGOOS,ioos:station:wmo:42067:1,2009-07-23T12:40:00Z,30.0430,-88.6490,1015.2,1111122 
CenGOOS,ioos:station:wmo:42067:1,2009-07-23T13:40:00Z,30.0430,-88.6490,1016.2,1111122 
CenGOOS,ioos:station:wmo:42067:1,2009-07-23T14:40:00Z,30.0430,-88.6490,1016.5,1111122 
CenGOOS,ioos:station:wmo:42067:1,2009-07-23T15:40:00Z,30.0430,-88.6490,1016.4,1111122 
CenGOOS,ioos:station:wmo:42067:1,2009-07-23T17:40:00Z,30.0430,-88.6490,1016.3,1111122 
CenGOOS,ioos:station:wmo:42067:1,2009-07-23T19:40:00Z,30.0430,-88.6490,1015.7,1111122 
CenGOOS,ioos:station:wmo:42067:1,2009-07-23T21:40:00Z,30.0430,-88.6490,1015.0,1111122 
CenGOOS,ioos:station:wmo:42067:1,2009-07-23T23:40:00Z,30.0430,-88.6490,1014.2,1111122 
CenGOOS,ioos:station:wmo:42067:1,2009-07-24T04:40:00Z,30.0430,-88.6490,1015.2,1111122 
CenGOOS,ioos:station:wmo:42067:1,2009-07-24T08:40:00Z,30.0430,-88.6490,1014.4,1111122 
CenGOOS,ioos:station:wmo:42067:1,2009-07-24T09:40:00Z,30.0430,-88.6490,1014.4,1111122 
CenGOOS,ioos:station:wmo:42067:1,2009-07-24T10:40:00Z,30.0430,-88.6490,1014.6,1111122 
CenGOOS,ioos:station:wmo:42067:1,2009-07-24T11:40:00Z,30.0430,-88.6490,1015.3,1111122 
CenGOOS,ioos:station:wmo:42067:1,2009-07-24T12:40:00Z,30.0430,-88.6490,1015.8,1111122 
CenGOOS,ioos:station:wmo:42067:1,2009-07-24T15:40:00Z,30.0430,-88.6490,1016.8,1111122 
CenGOOS,ioos:station:wmo:42067:1,2009-07-24T17:40:00Z,30.0430,-88.6490,1016.5,1111122 
CenGOOS,ioos:station:wmo:42067:1,2009-07-24T19:40:00Z,30.0430,-88.6490,1015.9,1111122 
CenGOOS,ioos:station:wmo:42067:1,2009-07-24T21:40:00Z,30.0430,-88.6490,1015.4,1111122 
CenGOOS,ioos:station:wmo:42067:1,2009-07-24T23:40:00Z,30.0430,-88.6490,1014.9,1111122 
CenGOOS,ioos:station:wmo:42067:1,2009-07-25T01:40:00Z,30.0430,-88.6490,1015.1,1111122 
CenGOOS,ioos:station:wmo:42067:1,2009-07-25T07:40:00Z,30.0430,-88.6490,1015.4,1111122 
CenGOOS,ioos:station:wmo:42067:1,2009-07-25T09:40:00Z,30.0430,-88.6490,1015.6,1111122 
CenGOOS,ioos:station:wmo:42067:1,2009-07-25T11:40:00Z,30.0430,-88.6490,1016.5,1111122 
CenGOOS,ioos:station:wmo:42067:1,2009-07-25T13:40:00Z,30.0430,-88.6490,1017.0,1111122 
CenGOOS,ioos:station:wmo:42067:1,2009-07-25T18:40:00Z,30.0430,-88.6490,1016.9,1111122 
CenGOOS,ioos:station:wmo:42067:1,2009-07-25T19:40:00Z,30.0430,-88.6490,1016.8,1111122 
CenGOOS,ioos:station:wmo:42067:1,2009-07-25T20:40:00Z,30.0430,-88.6490,1016.4,1111122 
CenGOOS,ioos:station:wmo:42067:1,2009-07-25T21:40:00Z,30.0430,-88.6490,1016.1,1111122 
CenGOOS,ioos:station:wmo:42067:1,2009-07-26T01:40:00Z,30.0430,-88.6490,1016.1,1111122 
CenGOOS,ioos:station:wmo:42067:1,2009-07-26T02:40:00Z,30.0430,-88.6490,1016.9,1111122 
CenGOOS,ioos:station:wmo:42067:1,2009-07-26T03:40:00Z,30.0430,-88.6490,1017.7,1111122 
CenGOOS,ioos:station:wmo:42067:1,2009-07-26T04:40:00Z,30.0430,-88.6490,1017.8,1111122 
CenGOOS,ioos:station:wmo:42067:1,2009-07-26T05:40:00Z,30.0430,-88.6490,1017.7,1111122 
CenGOOS,ioos:station:wmo:42067:1,2009-07-26T06:40:00Z,30.0430,-88.6490,1017.1,1111122 
CenGOOS,ioos:station:wmo:42067:1,2009-07-26T09:40:00Z,30.0430,-88.6490,1016.2,1111122 
CenGOOS,ioos:station:wmo:42067:1,2009-07-26T11:40:00Z,30.0430,-88.6490,1017.5,1111122 
CenGOOS,ioos:station:wmo:42067:1,2009-07-26T13:40:00Z,30.0430,-88.6490,1018.2,1111122 
CenGOOS,ioos:station:wmo:42067:1,2009-07-26T14:40:00Z,30.0430,-88.6490,1018.1,1111122 
CenGOOS,ioos:station:wmo:42067:1,2009-07-26T15:40:00Z,30.0430,-88.6490,1018.6,1111122 
CenGOOS,ioos:station:wmo:42067:1,2009-07-26T16:40:00Z,30.0430,-88.6490,1018.6,1111122 
CenGOOS,ioos:station:wmo:42067:1,2009-07-26T22:40:00Z,30.0430,-88.6490,1016.0,1111122 
CenGOOS,ioos:station:wmo:42067:1,2009-07-27T00:40:00Z,30.0430,-88.6490,1016.9,1111122 
CenGOOS,ioos:station:wmo:42067:1,2009-07-27T01:40:00Z,30.0430,-88.6490,1017.8,1111122 
CenGOOS,ioos:station:wmo:42067:1,2009-07-27T02:40:00Z,30.0430,-88.6490,1017.1,1111122 
CenGOOS,ioos:station:wmo:42067:1,2009-07-27T04:40:00Z,30.0430,-88.6490,1017.6,1111122 
CenGOOS,ioos:station:wmo:42067:1,2009-07-27T06:40:00Z,30.0430,-88.6490,1016.8,1111122 
CenGOOS,ioos:station:wmo:42067:1,2009-07-27T08:40:00Z,30.0430,-88.6490,1017.0,1111122 
CenGOOS,ioos:station:wmo:42067:1,2009-07-27T11:40:00Z,30.0430,-88.6490,1018.0,1111122 
CenGOOS,ioos:station:wmo:42067:1,2009-07-27T12:40:00Z,30.0430,-88.6490,1018.5,1111122 
CenGOOS,ioos:station:wmo:42067:1,2009-07-27T13:40:00Z,30.0430,-88.6490,1019.0,1111122 
CenGOOS,ioos:station:wmo:42067:1,2009-07-27T14:40:00Z,30.0430,-88.6490,1018.9,1111122 
CenGOOS,ioos:station:wmo:42067:1,2009-07-27T18:40:00Z,30.0430,-88.6490,1018.1,1111122 
CenGOOS,ioos:station:wmo:42067:1,2009-07-28T00:40:00Z,30.0430,-88.6490,1016.6,1111122 
CenGOOS,ioos:station:wmo:42067:1,2009-07-28T01:40:00Z,30.0430,-88.6490,1016.7,1111122 
CenGOOS,ioos:station:wmo:42067:1,2009-07-28T02:40:00Z,30.0430,-88.6490,1017.1,1111122 
CenGOOS,ioos:station:wmo:42067:1,2009-07-28T03:40:00Z,30.0430,-88.6490,1017.5,1111122 
CenGOOS,ioos:station:wmo:42067:1,2009-07-28T05:40:00Z,30.0430,-88.6490,1016.7,1111122 
CenGOOS,ioos:station:wmo:42067:1,2009-07-28T06:40:00Z,30.0430,-88.6490,1016.4,1111122 
CenGOOS,ioos:station:wmo:42067:1,2009-07-28T07:40:00Z,30.0430,-88.6490,1016.0,1111122 